Regional Weather Roundup
Issued by NWS Spokane, WA

Home | Current Version | Previous Version | Text Only | Print | Product List | Glossary On
Versions: 1 2 3 4 5 6 7 8 9 10 11 12 13 14 15 16 17 18 19 20 21 22 23 24 25 26 27 28 29 30 31 32 33 34 35 36 37 38 39 40 41 42 43 44 45 46 47 48 49 50
398
NZUS01 KOTX 080857
RWROTX
EASTERN WASHINGTON/NORTHERN IDAHO ROUNDUP
NATIONAL WEATHER SERVICE, SPOKANE WA
100 AM PST MON FEB 08 2016

Note: "fair" indicated few or no clouds below 12,000 feet with no
significant weather and/or obstructions to visibility.

...NORTHEAST WASHINGTON AND NORTHERN IDAHO PANHANDLE...

CITY           SKY/WX    TMP DP  RH WIND       PRES   REMARKS
SPOKANE INTL   PTCLDY    32  28  85 NE6       30.61F WCI  26
SPOKANE DOWNTO CLEAR     32  29  88 CALM      30.64F
DEER PARK      MOCLDY    30  27  88 N3        30.63F

...SOUTHEAST WASHINGTON AND SOUTHERN IDAHO PANHANDLE...

CITY           SKY/WX    TMP DP  RH WIND       PRES   REMARKS
WALLA WALLA    CLEAR     35  32  88 S7        30.59F WCI  29
PULLMAN/MOSCOW CLEAR     38  29  70 E8        30.59F
LOWELL           N/A     34  33  96 NW6       30.70F WCI  29

...COLUMBIA BASIN...

CITY           SKY/WX    TMP DP  RH WIND       PRES   REMARKS
EPHRATA        PTCLDY    34  29  82 NW12      30.63S WCI  25
MOSES LAKE     CLEAR     32  30  92 N8        30.64S WCI  25
TRI CITIES     CLEAR     31  28  89 CALM      30.65F
HERMISTON      CLEAR     32  30  92 S5        30.61F WCI  27
PENDLETON      CLEAR     34  31  88 SE5       30.58F WCI  30

...EAST SLOPES CASCADES...

CITY           SKY/WX    TMP DP  RH WIND       PRES   REMARKS
THE DALLES     CLEAR     36  32  85 E3        30.64S
YAKIMA         CLEAR     31  26  82 W5        30.63S WCI  26
ELLENSBURG     CLEAR     27  22  81 CALM      30.62S

...SOUTHERN BRITISH COLUMBIA...

CITY           SKY/WX    TMP DP  RH WIND       PRES   REMARKS

...WESTERN MONTANA...

CITY           SKY/WX    TMP DP  RH WIND       PRES   REMARKS
MISSOULA       CLOUDY    33  25  72 CALM      30.62S

...NEIGHBORING CITIES...

CITY           SKY/WX    TMP DP  RH WIND       PRES   REMARKS
SEATTLE        CLEAR     41  38  89 N7        30.50S



USA.gov is the U.S. government's official web portal to all federal, state and local government web resources and services.